[Iaude] MPEC C162: 2024 CO4 [a=2.08,e=0.57,i=2.7,H=26.5]
    mpec at cfa.harvard.edu 
    mpec at cfa.harvard.edu
       
    Wed Feb 14 06:37:47 EST 2024
    
    
  
M.P.E.C. 2024-C162                            Issued 2024 February 14, 11:36 UT
     The Minor Planet Electronic Circulars contain information on unusual
         minor planets, routine data on comets and natural satellites,
         and occasional editorial announcements.  They are published
    on behalf of Division F of the International Astronomical Union by the
          Minor Planet Center, Smithsonian Astrophysical Observatory,
                          Cambridge, MA 02138, U.S.A.
			  
             Prepared using the Tamkin Foundation Computer Network
                              MPC at CFA.HARVARD.EDU
            URL https://www.minorplanetcenter.net/    ISSN 1523-6714
                                    2024 CO4                                    
Observations:
     K24C04O* C2024 02 09.33655609 26 02.990+10 48 14.29         21.33wXEC162F52
     K24C04O  C2024 02 09.34818309 26 05.403+10 47 47.03         21.50wXEC162F52
     K24C04O  C2024 02 09.35980909 26 07.778+10 47 19.68         21.69wXEC162F52
     K24C04O  C2024 02 09.37143309 26 10.134+10 46 52.42         21.70wXEC162F52
     K24C04O  C2024 02 09.51180609 26 37.804+10 41 18.95         21.18GVEC162F52
     K24C04O  C2024 02 09.51262509 26 37.960+10 41 16.88         21.22GVEC162F52
     K24C04O |C2024 02 11.16952009 32 25.480+09 45 45.00         21.6 GVEC162807
     K24C04O |C2024 02 11.17739009 32 26.630+09 45 30.10         22.0 GVEC162807
     K24C04O |C2024 02 11.18513009 32 27.780+09 45 16.50         21.7 GVEC162807
     K24C04O KC2024 02 14.41289 09 40 15.24 +08 26 23.1          21.8 RVEC162691
     K24C04O KC2024 02 14.43051 09 40 16.91 +08 26 01.9          22.4 RVEC162691
     K24C04O KC2024 02 14.44815 09 40 18.62 +08 25 41.7          22.2 RVEC162691
Observer details:
691 Steward Observatory, Kitt Peak-Spacewatch.  Observer J. V. Scotti.  0.9-m
    f/3 reflector + CCD.
807 Cerro Tololo Observatory, La Serena.  Observers T. Linder, R. Holmes.
    0.61-m f/11 Ritchey-Chretien + CCD.
F52 Pan-STARRS 2, Haleakala.  Observers J. Herman, T. Lowe, P. Minguez, A.
    Schultz, I. Smith.  Measurers K. Chambers, T. de Boer, J. Fairlamb, H.
    Gao, M. Huber, C.-C. Lin, E. Magnier, Y. Ramanjooloo, R. Wainscoat, R.
    Weryk.  1.8-m Ritchey-Chretien + CCD.
Orbital elements:
2024 CO4                                                 Earth MOID = 0.0063 AU
Epoch 2023 Sept. 13.0 TT = JDT 2460200.5                MPC                     
M 325.13912              (2000.0)            P               Q                  
n   0.32879591     Peri.  130.68804     +0.10455933     -0.99393340             
a   2.0789870      Node   313.27525     +0.89773798     +0.10908878             
e   0.5686697      Incl.    2.68559     +0.42794143     +0.01400161             
P   3.00           H   26.57          G   0.15           U   8                  
Residuals in seconds of arc
240209 F52  0.3+  0.0     240209 F52  0.0   0.1+    240211 807  0.1+  0.3-
240209 F52  0.3+  0.0     240209 F52  0.1-  0.0     240214 691  0.3+  0.2+
240209 F52  0.1+  0.1-    240211 807  0.0   0.2+    240214 691  0.0   0.3-
240209 F52  0.0   0.0     240211 807  0.1-  0.6-    240214 691  0.2-  0.3+
Ephemeris:
2024 CO4                 a,e,i = 2.08, 0.57, 3                   q = 0.8967
Date    TT    R. A. (2000) Decl.     Delta      r    Elong.  Phase     V
2024 01 15    22 51 23.1 +04 23 38   0.09411 0.9296    52.7   122.7    26.3
...
2024 01 30    05 47 18.0 +34 08 45   0.02138 1.0007   137.0    42.2    19.9
...
2024 02 07    09 14 07.1 +12 45 16   0.06437 1.0504   176.9     2.9    21.0
...
2024 02 13    09 37 16.3 +08 56 32   0.1048  1.0917   175.0     4.5    22.3
2024 02 14    09 39 28.0 +08 35 00   0.1118  1.0988   174.9     4.6    22.4
2024 02 15    09 41 24.3 +08 16 11   0.1189  1.1060   174.7     4.7    22.6
...
2024 02 21    09 49 35.3 +07 01 08   0.1629  1.1506   172.8     6.2    23.4
...
2024 02 29    09 56 05.5 +06 13 57   0.2263  1.2128   167.9     9.9    24.4
...
2024 03 15    10 05 22.8 +05 38 07   0.3627  1.3342   156.1    17.5    25.9
A. U. Tomatic                (C) Copyright 2024 MPC           M.P.E.C. 2024-C162
    
    
More information about the Iaude
mailing list